Temperature
23 24 23 24 24 24 23 23 23 23 23 23 23 23 23 21 21 21 21 21 20 20 19 19 18 18 18 18 18 18 17 17 17 16 16 16 16 16 15 15 15 15 15 15
23 23 24 24 23 23 23 23 23 23 23 23 23 22 22 22 21 20 20 20 20 20 19 19 18 18 18 18 18 18 17 17 17 16 16 16 16 16 15 15 15 15 15 15
23 23 23 23 23 23 23 23 23 23 22 23 22 22 22 22 21 20 20 20 20 19 19 19 18 18 18 18 18 17 17 17 17 16 16 16 16 16 15 15 15 15 15 15
23 23 23 23 23 23 23 23 23 22 23 23 23 22 23 22 21 21 20 20 19 19 19 18 18 18 18 18 17 17 17 17 17 16 16 16 16 16 15 15 15 15 15 15
23 23 23 23 23 23 23 22 23 23 23 23 23 23 23 22 22 21 20 19 19 19 18 18 18 17 17 17 17 17 17 17 17 16 16 16 16 15 15 15 15 15 15 15
23 23 23 23 23 22 22 22 22 23 23 22 22 22 22 22 22 21 20 19 19 18 18 17 17 17 17 17 17 17 17 17 17 16 16 16 16 15 15 15 15 15 15 15
22 22 22 22 22 22 23 23 22 22 22 22 22 22 22 22 21 20 20 19 18 18 17 17 17 17 17 17 17 17 17 17 16 16 16 16 16 15 15 15 15 15 15 15
22 22 22 22 23 23 23 23 22 21 22 22 22 22 22 21 20 19 18 18 17 17 17 16 16 16 16 16 16 16 16 16 16 16 16 16 15 15 15 15 15 15 15 14
22 22 22 22 22 23 22 23 23 22 22 22 22 22 21 20 20 19 18 18 17 17 16 16 16 16 16 16 16 16 16 16 16 16 15 15 15 15 15 15 15 15 14 14
22 22 22 21 22 21 22 23 22 22 21 21 22 22 22 21 20 20 19 18 17 16 16 15 15 15 15 16 16 16 15 15 16 15 15 15 15 15 15 15 14 14 14 14
22 22 21 21 21 22 21 21 22 22 22 21 21 22 22 21 20 20 19 18 17 16 16 15 15 15 15 15 15 15 15 15 15 15 15 15 15 15 14 14 14 14 14 14
21 22 22 22 21 21 22 22 22 21 21 21 21 22 21 20 20 19 19 18 17 16 15 15 15 15 15 15 15 15 15 14 14 15 14 14 14 14 14 14 14 14 14 14
20 21 21 21 21 20 21 21 21 21 21 21 21 21 20 20 19 18 18 17 17 16 15 14 14 14 14 14 14 14 14 14 14 14 14 14 14 14 14 14 14 14 13 13
19 21 21 21 21 21 20 20 20 21 21 21 21 21 21 20 19 18 17 17 16 15 15 14 14 14 14 14 14 14 14 13 13 14 14 14 14 13 13 13 13 13 13 13
19 20 21 21 20 20 20 20 20 20 21 21 21 21 21 20 19 18 17 16 16 15 14 14 14 14 13 13 13 13 13 13 13 13 13 13 13 13 13 13 13 13 13 13
19 19 20 20 19 19 19 20 20 20 20 20 20 20 21 19 18 17 17 16 15 15 14 14 13 13 13 13 13 13 13 13 13 13 13 13 13 13 13 13 12 12 12 12
18 19 19 19 19 18 19 20 20 20 20 20 20 20 19 19 18 17 16 16 15 14 14 13 13 13 13 13 13 12 13 13 13 12 12 12 12 12 12 12 12 12 12 12
18 18 19 19 18 18 20 20 19 19 19 20 19 19 18 18 17 16 15 15 15 14 13 13 13 13 13 12 12 12 12 12 12 12 12 12 12 11 11 11 12 12 11 11
17 18 18 18 18 19 19 18 18 18 19 19 19 18 17 16 16 16 15 14 14 13 13 13 12 12 12 12 12 12 12 12 12 12 12 11 11 11 11 11 11 11 11 11
15 17 18 17 17 18 19 18 17 18 18 18 18 17 16 16 18 18 15 14 13 13 13 12 12 12 12 12 12 12 12 12 12 11 11 11 11 11 11 11 11 11 11 10
16 16 16 17 17 18 18 16 17 17 19 17 17 16 16 16 17 15 14 13 13 12 12 12 12 11 12 11 11 11 11 11 11 11 11 11 11 11 11 11 11 10 10 10
17 17 17 17 17 17 16 16 17 18 17 16 16 15 15 15 14 13 13 12 12 12 12 11 11 11 11 11 11 11 11 11 11 11 11 10 10 10 10 10 10 10 10 10
16 17 17 17 18 16 15 16 15 15 15 15 15 14 14 13 13 13 12 12 12 12 11 11 11 11 11 11 11 11 11 11 10 10 10 10 10 10 10 10 10 9 9 9
16 15 15 16 17 16 14 14 13 13 14 14 13 13 13 13 12 12 12 11 11 11 11 11 10 10 10 10 10 10 10 10 10 10 10 10 9 9 9 9 9 9 9 9
15 14 15 15 16 15 14 14 13 13 13 13 13 12 12 12 12 12 11 11 11 11 10 10 10 10 10 10 10 10 10 10 9 9 9 9 9 9 9 9 9 9 8 8
14 14 15 16 16 16 15 13 13 12 12 12 12 12 12 12 11 11 11 11 11 10 10 10 10 9 9 9 9 9 9 9 9 9 8 8 8 8 8 8 8 8 8 8
Wind_Speed
4 6 6 5 5 3 3 4 3 1 1 3 4 3 2 2 4 4 5 6 7 7 7 6 6 6 6 7 7 7 7 6 5 4 3 3 2 2 2 2 2 2 2 2
6 6 4 3 4 5 5 5 4 2 1 3 2 3 2 1 3 4 5 6 6 6 6 6 6 6 6 7 7 7 7 7 6 5 4 3 3 2 2 2 2 3 2 3
7 3 3 5 6 6 6 5 4 3 2 4 4 3 2 2 3 3 4 5 5 5 6 7 7 7 6 7 7 7 8 7 7 6 4 3 3 3 3 3 3 3 3 3
5 3 5 6 6 6 5 3 4 4 5 4 5 5 2 3 3 3 3 4 5 5 5 5 6 6 6 7 7 7 7 7 7 6 6 6 5 4 4 3 3 3 4 4
5 4 6 6 4 5 3 1 4 5 6 6 6 6 2 2 3 3 2 3 4 5 5 5 5 6 6 5 5 6 7 7 7 7 7 6 6 4 3 3 4 4 4 4
4 3 4 4 2 3 3 3 3 5 6 7 5 6 3 2 2 1 0 1 2 3 3 4 4 4 4 4 4 5 6 7 7 8 8 8 7 5 5 5 4 4 3 4
6 5 3 3 4 5 6 6 4 5 5 4 2 4 3 1 1 1 1 1 1 1 2 2 2 3 3 3 4 5 6 6 7 8 8 8 7 6 6 5 5 4 4 4
8 7 5 4 5 5 7 8 5 4 4 2 3 5 1 2 0 1 1 1 0 1 1 1 2 2 2 3 4 5 6 6 6 7 7 6 6 5 5 5 4 4 4 4
6 5 4 3 3 5 6 7 4 5 5 6 4 3 2 3 1 1 1 1 1 1 1 1 1 1 2 2 3 4 5 5 6 6 6 6 6 5 5 5 4 4 3 3
5 5 4 3 4 1 4 4 4 5 5 6 5 6 3 3 2 2 2 1 1 1 1 1 1 1 1 2 2 3 3 4 5 5 5 4 5 5 4 4 4 4 4 4
6 7 6 5 6 6 5 6 5 6 6 6 5 2 1 1 1 2 1 1 1 1 1 1 1 0 1 1 2 2 3 3 3 5 5 5 4 4 4 4 4 3 4 4
5 6 7 7 3 3 7 8 8 8 7 7 7 3 3 1 1 1 1 1 1 1 1 1 1 0 0 1 1 2 2 3 3 3 4 5 4 5 4 4 4 3 3 4
5 6 7 6 7 6 6 7 8 8 8 9 9 4 3 1 1 2 2 1 1 1 1 1 1 1 0 1 1 2 2 2 2 3 4 4 5 5 5 4 4 4 4 4
5 7 9 8 5 6 8 9 9 10 10 11 12 10 5 4 4 3 3 2 1 1 2 2 2 1 1 1 1 2 2 2 2 3 4 4 4 5 5 4 4 4 4 4
5 9 9 9 6 7 9 11 12 14 13 13 12 10 8 6 5 5 4 3 3 3 3 3 3 2 2 1 1 2 2 2 2 3 3 4 4 4 4 4 4 4 4 4
5 7 8 9 7 8 11 12 13 13 13 13 12 12 6 5 5 5 5 4 4 4 4 4 4 3 3 2 2 2 3 3 3 3 3 3 4 4 4 4 4 4 4 5
5 7 7 9 6 7 11 12 13 12 11 11 12 9 5 6 6 6 5 5 5 4 4 4 4 4 4 3 2 2 3 3 3 3 3 3 4 4 4 4 4 4 5 5
7 8 7 7 6 10 5 1 5 9 10 9 8 6 6 6 5 5 5 5 5 4 4 4 4 3 3 3 3 3 3 3 3 3 3 3 4 4 4 3 3 4 4 4
8 8 6 6 9 10 6 3 4 7 9 7 7 6 5 3 4 5 4 4 4 4 4 3 3 3 3 2 3 3 3 3 3 3 4 4 4 4 4 4 4 4 4 4
6 8 8 7 8 9 3 1 3 5 7 4 5 5 4 5 6 4 3 3 3 3 3 2 2 2 2 2 2 3 3 2 3 4 4 4 4 4 4 4 4 3 3 4
6 7 11 11 10 8 1 2 5 7 3 2 4 4 5 6 4 1 2 2 3 2 2 2 2 2 2 2 2 3 3 3 3 3 3 4 4 4 4 4 3 3 3 3
8 7 8 8 9 7 3 5 5 3 3 1 3 4 5 4 2 2 2 3 3 2 2 2 2 2 1 1 2 3 3 3 2 1 2 3 3 3 3 3 3 3 3 3
7 6 5 7 5 1 3 4 3 3 4 4 4 4 4 4 3 3 3 3 3 3 3 3 3 2 1 1 2 2 2 2 1 1 1 1 2 2 3 3 3 3 3 3
6 4 6 7 7 5 5 5 4 4 5 4 4 3 4 5 4 3 3 3 3 3 3 3 3 3 2 1 2 2 2 2 2 1 1 1 1 1 2 2 3 3 3 3
5 5 7 10 9 6 6 6 5 4 4 4 3 3 4 4 4 4 4 4 3 3 3 4 4 3 2 2 1 1 1 1 2 1 1 1 1 1 2 2 2 3 3 2
8 9 9 8 6 6 6 4 4 5 5 4 3 3 3 4 4 4 4 4 4 4 4 4 4 3 3 2 1 1 1 2 2 1 1 1 1 1 2 2 1 0 2 1
Wind_Direction
183 205 206 204 217 237 223 243 255 267 221 232 232 256 278 207 208 213 203 196 197 198 192 187 190 193 194 194 194 184 186 184 179 178 183 178 171 172 164 165 166 175 179 167
191 209 218 204 192 209 222 235 241 221 174 243 236 261 278 219 206 215 216 199 195 198 193 188 195 196 203 200 202 198 197 194 193 194 195 195 188 200 185 184 188 192 194 185
206 183 182 189 193 211 224 242 249 249 235 217 236 247 220 174 185 206 226 218 201 201 202 194 196 199 202 208 207 207 204 198 197 195 195 190 189 203 196 199 201 203 201 199
216 201 189 200 207 226 233 243 245 234 238 239 244 271 247 191 187 202 215 218 214 210 211 203 202 202 207 212 212 214 208 204 196 193 200 208 217 221 224 215 206 207 206 206
195 192 200 212 221 231 247 227 232 241 251 254 245 259 239 179 208 200 210 224 226 220 217 209 210 212 211 208 208 215 210 207 201 202 202 219 231 235 229 219 209 213 208 209
205 189 219 230 219 205 173 189 198 223 243 247 244 249 251 193 229 237 227 242 234 219 217 216 211 210 207 198 197 204 209 208 205 206 206 217 228 227 222 220 216 216 211 209
193 190 185 196 188 186 214 235 233 225 226 237 182 242 244 98 60 301 302 311 248 188 191 202 205 203 202 199 198 200 203 208 206 208 212 216 223 224 223 223 219 220 219 217
206 197 186 200 226 220 217 237 251 260 256 251 212 235 179 112 77 333 309 310 188 170 178 186 185 191 200 197 202 202 204 208 206 208 212 215 216 219 221 221 223 224 227 225
218 203 163 192 223 229 215 225 263 274 276 267 233 218 202 175 202 203 176 148 149 156 160 156 151 168 191 192 194 201 205 205 204 208 211 213 212 211 217 222 224 226 225 220
239 224 181 175 185 176 253 207 212 241 257 259 251 245 236 195 200 194 196 180 153 162 156 144 154 185 200 203 193 196 206 211 206 205 206 210 212 210 215 218 221 219 220 215
236 232 207 198 217 217 194 204 226 242 253 265 268 255 80 197 212 213 199 179 187 192 189 185 184 189 184 189 186 197 206 211 214 207 203 200 204 208 208 211 219 223 220 214
222 240 234 224 204 258 232 228 226 242 242 249 271 268 108 166 235 244 242 221 214 202 191 183 163 128 136 178 194 203 214 214 216 214 205 204 201 203 206 209 216 218 219 213
200 227 230 213 203 202 220 223 231 248 257 248 252 249 136 178 223 228 237 242 206 182 176 169 156 166 178 192 201 203 209 217 209 210 207 206 204 203 205 210 213 216 216 212
228 234 239 247 257 222 227 222 223 232 245 251 251 263 251 246 242 241 244 247 234 212 203 191 196 208 223 229 222 220 207 209 201 200 209 212 211 205 208 212 215 219 220 218
227 244 246 256 260 245 245 240 228 234 246 257 266 269 270 255 249 246 243 242 246 232 218 209 213 221 227 236 235 229 218 210 203 201 210 215 214 206 207 209 212 218 219 223
228 246 248 247 239 243 251 247 239 240 246 253 265 269 269 250 242 237 237 234 241 240 226 220 220 223 229 231 236 232 224 216 209 214 220 211 210 205 208 211 212 213 217 222
214 233 242 248 237 252 251 243 234 232 233 243 255 265 246 238 234 236 241 234 236 238 232 227 227 225 229 235 236 240 235 222 213 217 227 213 213 210 208 209 209 208 214 216
227 230 241 254 242 243 248 160 232 234 240 243 256 264 246 246 247 244 241 239 241 236 232 231 233 233 234 234 235 233 228 221 218 218 223 223 216 217 216 212 215 216 216 214
230 226 232 239 249 259 247 220 213 230 248 241 244 248 236 234 241 235 225 238 246 238 233 230 229 230 229 231 231 225 219 218 219 228 229 228 224 224 224 222 226 225 221 219
203 223 233 234 245 251 249 162 200 229 246 218 225 227 212 206 241 242 200 220 232 231 225 220 217 217 220 224 220 217 216 226 238 239 237 233 227 228 231 232 232 230 227 228
193 208 225 236 246 257 284 140 183 224 271 163 218 221 210 229 269 294 194 206 212 210 214 208 204 208 217 212 213 222 227 246 259 251 237 232 228 232 235 237 236 236 228 224
218 216 220 227 238 245 134 166 210 281 351 286 248 237 235 246 261 233 213 214 211 210 213 207 199 203 212 220 222 229 246 261 259 241 237 234 230 230 236 232 233 238 235 227
226 234 240 234 249 4 174 217 266 300 289 291 274 256 234 232 235 239 231 224 221 217 217 215 205 203 210 232 243 249 266 263 242 212 225 244 247 230 231 226 225 235 237 239
222 228 239 249 252 251 246 250 261 272 280 286 278 254 231 234 236 237 233 231 229 226 216 211 205 205 222 239 245 256 268 248 210 196 209 248 270 271 246 236 230 235 241 244
236 213 237 252 257 260 246 240 249 267 279 280 269 249 237 237 236 236 230 225 225 226 220 214 210 209 220 228 236 257 259 244 230 214 216 248 265 273 275 264 255 249 253 258
226 226 236 252 257 261 265 260 261 266 268 257 255 258 248 239 240 238 236 233 228 227 223 214 210 210 217 220 218 234 246 233 227 230 239 256 268 269 272 273 273 341 276 304
Height
1513 1512 1512 1511 1511 1513 1515 1517 1518 1517 1517 1518 1518 1518 1519 1521 1523 1523 1524 1525 1527 1529 1531 1533 1535 1536 1538 1539 1541 1542 1543 1544 1544 1545 1545 1545 1546 1546 1546 1546 1547 1547 1547 1547
1512 1512 1511 1512 1513 1514 1515 1516 1516 1516 1517 1518 1517 1518 1517 1519 1521 1522 1523 1523 1525 1527 1529 1531 1533 1534 1536 1537 1539 1540 1541 1542 1543 1543 1544 1545 1545 1546 1546 1545 1546 1546 1546 1547
1509 1510 1511 1513 1514 1515 1514 1515 1515 1517 1517 1516 1517 1517 1515 1517 1520 1521 1522 1523 1524 1525 1527 1528 1530 1532 1533 1535 1537 1538 1540 1541 1541 1542 1543 1543 1544 1544 1545 1545 1545 1545 1545 1546
1509 1510 1511 1512 1512 1513 1514 1513 1514 1516 1517 1516 1517 1520 1513 1512 1516 1519 1520 1521 1522 1523 1525 1527 1528 1529 1530 1532 1534 1536 1537 1539 1539 1540 1541 1542 1542 1543 1543 1544 1543 1544 1544 1544
1508 1509 1510 1511 1511 1512 1512 1513 1513 1514 1513 1515 1513 1516 1512 1511 1514 1515 1518 1519 1520 1522 1523 1524 1526 1527 1528 1530 1531 1533 1534 1536 1537 1538 1539 1540 1541 1541 1542 1542 1542 1543 1543 1543
1507 1510 1510 1510 1511 1512 1513 1514 1513 1512 1512 1520 1514 1516 1515 1509 1512 1513 1516 1518 1519 1520 1521 1522 1523 1524 1526 1527 1528 1529 1531 1533 1534 1535 1536 1537 1538 1539 1539 1540 1540 1541 1541 1541
1509 1509 1510 1511 1511 1513 1512 1514 1519 1520 1521 1517 1512 1515 1513 1509 1512 1514 1516 1517 1518 1519 1520 1520 1521 1522 1523 1524 1525 1526 1528 1529 1530 1532 1533 1534 1535 1536 1537 1537 1538 1538 1539 1539
1510 1511 1508 1509 1509 1509 1509 1510 1519 1525 1521 1513 1513 1514 1509 1511 1513 1515 1516 1517 1517 1518 1518 1519 1519 1520 1521 1522 1523 1524 1525 1526 1527 1529 1530 1531 1533 1533 1534 1535 1535 1536 1537 1537
1506 1508 1507 1508 1508 1507 1509 1508 1508 1512 1513 1516 1509 1508 1508 1510 1512 1514 1515 1516 1516 1517 1517 1517 1518 1518 1519 1520 1521 1521 1523 1524 1525 1526 1528 1529 1530 1530 1531 1532 1533 1533 1534 1534
1502 1507 1506 1508 1509 1510 1507 1507 1511 1514 1520 1520 1511 1508 1506 1507 1509 1511 1513 1514 1515 1515 1516 1516 1517 1517 1518 1518 1519 1520 1521 1522 1523 1524 1525 1526 1527 1527 1528 1529 1530 1530 1531 1532
1503 1505 1507 1507 1507 1507 1510 1511 1509 1509 1511 1516 1516 1509 1501 1504 1507 1509 1511 1513 1514 1515 1515 1515 1515 1516 1516 1516 1517 1517 1518 1519 1520 1521 1522 1522 1524 1524 1525 1526 1527 1527 1528 1529
1504 1503 1504 1504 1505 1507 1505 1504 1507 1512 1510 1510 1512 1509 1502 1505 1507 1509 1510 1512 1513 1514 1514 1514 1514 1514 1514 1514 1515 1515 1516 1516 1517 1518 1519 1520 1521 1521 1522 1523 1524 1524 1525 1525
1505 1504 1507 1508 1509 1508 1506 1505 1505 1505 1505 1507 1511 1507 1503 1505 1507 1508 1510 1511 1511 1512 1512 1512 1512 1512 1513 1513 1513 1513 1513 1514 1514 1515 1515 1516 1517 1518 1519 1520 1521 1521 1522 1522
1506 1501 1503 1506 1500 1500 1503 1505 1505 1506 1506 1504 1502 1500 1500 1502 1505 1507 1508 1509 1510 1510 1510 1510 1510 1511 1511 1511 1511 1511 1511 1511 1511 1512 1512 1513 1514 1515 1516 1517 1517 1518 1518 1519
1505 1501 1499 1498 1499 1500 1501 1501 1502 1502 1499 1501 1496 1496 1497 1499 1503 1505 1506 1507 1508 1508 1508 1508 1508 1509 1509 1509 1508 1508 1508 1508 1509 1509 1510 1510 1511 1511 1512 1513 1514 1514 1515 1516
1503 1501 1500 1500 1500 1500 1501 1498 1498 1499 1498 1497 1497 1496 1495 1499 1501 1503 1504 1505 1505 1505 1506 1506 1506 1506 1506 1506 1506 1506 1506 1506 1506 1506 1507 1507 1508 1508 1509 1509 1510 1511 1511 1512
1502 1501 1502 1498 1499 1501 1499 1491 1492 1494 1493 1494 1494 1493 1495 1497 1499 1500 1501 1502 1503 1503 1503 1503 1503 1503 1504 1504 1504 1503 1504 1504 1504 1504 1504 1505 1505 1505 1505 1506 1506 1507 1507 1508
1500 1499 1499 1498 1501 1504 1488 1487 1489 1490 1490 1491 1491 1492 1494 1496 1497 1499 1499 1500 1500 1500 1500 1500 1501 1501 1501 1501 1501 1501 1501 1501 1502 1502 1502 1502 1502 1502 1502 1502 1503 1503 1504 1504
1500 1499 1499 1499 1497 1490 1487 1488 1490 1490 1488 1489 1490 1492 1494 1495 1496 1496 1497 1497 1498 1498 1498 1498 1498 1498 1498 1498 1498 1499 1499 1499 1499 1499 1499 1499 1499 1499 1499 1499 1500 1500 1501 1501
1501 1499 1498 1498 1499 1494 1484 1486 1489 1491 1488 1487 1489 1490 1492 1493 1491 1491 1494 1494 1495 1495 1495 1495 1496 1496 1496 1496 1496 1496 1496 1496 1496 1496 1496 1497 1497 1497 1497 1497 1497 1497 1497 1498
1497 1497 1496 1494 1494 1484 1484 1488 1489 1492 1485 1486 1487 1488 1490 1490 1490 1492 1492 1493 1493 1493 1493 1493 1493 1493 1494 1494 1494 1494 1494 1494 1494 1494 1494 1494 1494 1494 1494 1494 1495 1495 1495 1495
1489 1490 1491 1490 1492 1488 1486 1487 1487 1485 1485 1486 1486 1487 1488 1489 1490 1490 1490 1491 1491 1491 1491 1491 1491 1491 1492 1492 1492 1492 1492 1492 1491 1491 1491 1491 1491 1491 1491 1492 1492 1492 1492 1492
1486 1485 1483 1484 1483 1483 1485 1485 1486 1486 1486 1486 1486 1487 1487 1488 1488 1488 1488 1489 1489 1489 1489 1489 1489 1489 1490 1489 1489 1489 1489 1489 1489 1489 1489 1489 1489 1489 1489 1489 1489 1489 1489 1489
1484 1487 1486 1483 1480 1482 1484 1484 1485 1485 1485 1485 1485 1485 1485 1486 1486 1486 1486 1486 1487 1487 1487 1487 1487 1487 1487 1487 1487 1487 1487 1487 1486 1487 1486 1486 1486 1486 1486 1486 1486 1486 1486 1486
1482 1484 1482 1480 1479 1481 1481 1482 1482 1483 1483 1483 1483 1483 1483 1483 1483 1484 1484 1484 1484 1484 1485 1485 1485 1485 1485 1485 1485 1485 1484 1484 1484 1484 1484 1484 1484 1484 1484 1484 1484 1483 1483 1483
1480 1480 1479 1475 1476 1477 1478 1479 1479 1480 1480 1480 1480 1480 1480 1481 1481 1481 1481 1481 1481 1482 1482 1482 1482 1482 1483 1483 1482 1482 1482 1482 1482 1482 1482 1482 1481 1481 1481 1480 1480 1480 1480 1480